Location: ????????
(55.1591°N, 39.1782°E)
Time: 21:53:17
(UTC+00:00)

Cosmos 1626 - Pass Details

Date: 14 April 2024
Orbit: 408 x 412 km, 82.5° (Epoch: 22 May)

Event Time Altitude Azimuth Distance (km) Brightness Sun altitude
Rises 01:38:14 0° 189° (S) 2,371 5.2 -6.5°
Reaches altitude 10° 01:40:15 10° 188° (S) 1,516 4.2 -6.3°
Maximum altitude 01:43:33 85° 101° (E) 438 1.9 -5.9°
Drops below altitude 10° 01:46:55 10° 13° (NNE) 1,543 5.2 -5.4°
Sets 01:48:59 0° 13° (NNE) 2,420 6.2 -5.2°
